Simultaneous Nadir Overpasses (SNOs) Predictions

Prediction of SNOs between FY3D and NOAA-19 Satellite Orbit:

Table of predicted SNOs for the next 14.0 days since TLE Epoch: 8/13/2022
Index Date (FY3D) Time (FY3D) Lat,Lon (FY3D) SZA (FY3D ) Date (NOAA-19) Time (NOAA-19) Lat,Lon (NOAA-19) SZA (NOAA-19 ) Distance(km) Time Diff (sec)
1 08/16/2022 14:40:14 -77.31, 124.62 115.82 08/16/2022 14:39:04 -77.33, 124.69 115.78 2.79 70
2 08/16/2022 15:31:00 77.30, -68.01 64.18 08/16/2022 15:29:58 77.33, -68.06 64.23 3.34 62
3 08/16/2022 16:21:46 -77.34, 99.11 115.76 08/16/2022 16:21:04 -77.32, 99.15 115.77 2.05 42
4 08/16/2022 17:12:32 77.33, -93.52 64.24 08/16/2022 17:11:58 77.32, -93.60 64.25 2.22 34
5 08/16/2022 18:03:17 -77.33, 73.79 115.75 08/16/2022 18:03:03 -77.36, 73.81 115.72 3.29 14
6 08/16/2022 18:54:04 77.36,-119.03 64.30 08/16/2022 18:53:57 77.35,-118.94 64.29 2.37 7
7 08/16/2022 19:44:49 -77.36, 48.28 115.70 08/16/2022 19:45:03 -77.35, 48.28 115.71 0.86 14
8 08/16/2022 20:35:35 77.34,-144.35 64.30 08/16/2022 20:35:57 77.34,-144.48 64.30 3.03 22
9 08/16/2022 21:26:21 -77.38, 22.77 115.64 08/16/2022 21:27:02 -77.38, 22.94 115.66 4.04 41
10 08/16/2022 22:17:07 77.37,-169.87 64.36 08/16/2022 22:17:56 77.37,-169.82 64.35 1.19 49
11 08/16/2022 23:07:52 -77.37, -2.55 115.63 08/16/2022 23:09:02 -77.37, -2.60 115.65 1.25 70
12 08/16/2022 23:58:41 77.49, 164.23 64.53 08/16/2022 23:59:53 77.49, 165.24 64.44 24.39 72



Historial Predications of SNOs between FY3D and NOAA-19
